Simultaneous Nadir Overpasses (SNOs) Predictions

Prediction of SNOs between GOES-16 and NOAA-20 Satellite Orbit:

Table of predicted SNOs for the next 14.0 days since TLE Epoch: 7/12/2019
Index Date Time (GOES-16) GOES-16 Lat,Lon NOAA-20 Lat,Lon Distance(km) Time Diff (sec)
1 07/13/2019 18:16:35 0.02, -75.19 0.58, -72.71 283.65 80
2 07/15/2019 06:38:23 -0.02, -75.20 0.58, -77.98 315.70 80
3 07/16/2019 06:16:57 -0.02, -75.21 -0.41, -73.44 201.41 80
4 07/17/2019 18:38:52 0.02, -75.21 -0.78, -78.74 402.30 80
5 07/18/2019 18:22:47 0.01, -75.22 0.22, -74.20 115.38 80
6 07/20/2019 06:41:54 -0.01, -75.24 0.94, -79.48 482.54 80
7 07/21/2019 06:23:09 -0.01, -75.26 -0.05, -74.94 35.60 80
8 07/23/2019 18:26:20 0.01, -75.29 -0.08, -75.72 48.58 80
9 07/24/2019 18:10:14 0.00, -75.31 0.91, -71.18 469.95 80
10 07/26/2019 06:29:21 -0.01, -75.34 0.25, -76.45 126.86 80




NCC Satellite Simultaneous Nadir Overpasses (SNOs) Prediction Service
